Wind_Speed
25 25 21 22 21 19 17 19 20 19 20 21 21 21 21 21 22 21 18 17 16 15 15 15 13 15 16 17 21 24 26 28 29 26 36 43 37 35 29 24 26 28 29
30 28 24 24 22 19 19 17 16 18 19 22 21 22 21 22 21 21 19 19 20 19 17 16 16 19 22 25 28 27 28 32 34 41 37 21 28 34 32 28 29 32 33
33 31 28 27 24 23 21 21 21 21 22 22 24 23 24 23 23 21 21 22 21 18 17 18 19 21 23 25 28 25 27 36 38 36 30 29 32 38 34 31 31 34 36
34 32 29 31 28 27 25 26 25 26 25 25 25 25 24 25 25 24 24 24 22 21 19 22 25 26 24 28 28 31 35 37 39 37 31 31 36 35 32 32 35 37 38
36 34 31 33 33 30 29 28 26 19 23 28 27 32 33 28 29 29 27 26 25 21 20 26 34 36 29 32 33 35 33 32 31 35 37 39 38 35 37 36 38 39 40
38 37 34 36 39 33 35 35 36 28 29 35 34 36 42 33 32 30 28 28 27 27 28 31 31 31 34 32 34 33 31 30 28 29 31 35 35 36 39 40 42 44 43
26 28 7 14 16 25 30 28 33 35 39 28 31 31 38 45 31 26 29 33 35 38 38 35 27 25 22 24 26 27 29 32 34 35 36 38 39 41 43 43 46 47 46
15 12 4 11 13 12 8 8 16 19 18 21 17 16 25 40 29 36 43 39 35 26 23 23 24 25 28 28 30 31 34 36 38 40 42 43 44 44 46 46 45 46 42
9 9 10 10 14 12 15 16 18 22 24 22 21 17 20 22 31 35 32 26 24 22 23 26 28 29 31 32 33 35 36 37 39 41 42 41 42 43 43 43 42 44 44
7 8 10 12 10 10 12 13 17 26 27 24 25 24 25 25 26 27 28 28 27 27 28 30 31 33 34 35 35 35 33 32 35 36 38 39 38 39 40 42 42 42 43
6 7 6 7 9 10 12 11 11 12 14 16 18 21 24 24 26 27 28 29 31 31 32 34 35 38 38 38 38 36 35 34 34 35 36 37 39 40 41 41 42 40 40
5 5 6 9 12 12 12 13 16 18 21 21 23 23 27 28 29 31 32 33 35 37 38 40 40 41 40 39 38 38 39 40 39 38 39 39 39 38 35 33 43 37 39
5 7 9 12 13 14 16 18 20 24 26 26 28 30 30 31 33 35 37 39 41 42 43 43 43 43 42 41 39 38 39 38 39 39 39 39 38 38 39 40 41 39 39
8 10 11 11 13 15 16 18 21 23 25 26 27 29 30 33 37 38 40 41 42 43 43 44 43 43 43 43 42 40 41 40 38 38 38 38 37 37 38 37 36 34 34
9 9 11 13 15 16 17 19 21 22 23 24 27 29 32 33 37 37 38 39 40 41 43 42 42 42 42 42 41 41 40 39 39 38 38 36 35 35 34 33 33 31 34
14 15 16 18 19 20 21 21 22 23 24 25 27 27 29 30 31 33 35 36 37 39 40 41 42 42 40 39 39 38 37 36 36 38 36 34 34 32 32 30 27 28 29
19 21 23 23 22 20 20 19 20 20 20 22 23 24 25 27 29 31 33 34 35 38 38 38 40 41 40 39 37 36 34 32 33 34 34 32 31 31 28 29 27 27 27
22 22 22 21 21 20 20 19 20 20 20 21 22 22 23 24 26 28 30 32 33 35 37 38 39 38 38 37 37 36 37 34 31 33 34 33 32 31 28 29 28 28 26
19 19 20 21 22 22 22 21 20 19 19 20 20 22 25 25 23 26 28 31 32 33 34 36 38 41 39 38 37 36 33 35 38 34 33 34 33 33 32 32 31 31 31
21 19 20 20 21 19 17 17 15 18 19 19 20 19 18 22 27 29 29 32 35 35 34 36 36 35 35 35 35 33 33 33 34 36 33 32 33 31 32 31 31 28 29
16 15 20 21 17 15 20 18 17 19 18 17 19 20 24 26 32 33 34 33 33 33 34 34 29 29 25 26 29 30 30 30 31 32 33 31 30 28 28 32 34 27 27
16 16 16 20 22 21 18 21 20 16 17 16 16 17 27 28 22 29 35 35 33 30 29 26 23 27 21 18 22 22 23 23 25 29 32 32 32 29 29 28 31 30 30
20 20 22 23 26 24 24 19 23 19 19 15 15 16 18 22 27 33 34 34 28 20 20 21 24 24 24 26 18 17 16 15 17 21 25 28 28 32 31 29 30 30 31
25 26 26 24 24 22 19 22 24 17 17 12 14 19 22 27 31 34 37 30 23 23 21 21 21 25 23 19 17 18 18 17 20 22 23 26 26 26 29 32 32 28 32
23 22 22 23 21 20 16 18 15 17 11 13 17 21 24 27 27 31 29 22 17 18 20 21 19 21 24 20 16 14 19 21 19 22 22 22 23 25 28 29 35 34 32
21 23 23 20 15 14 11 14 11 10 11 15 19 21 24 23 21 25 26 23 21 19 18 19 18 19 17 18 18 19 23 24 25 26 27 29 28 26 26 26 30 33 33
Wind_Direction
217 220 238 223 215 215 218 227 233 237 241 245 247 249 248 251 248 246 247 246 252 254 258 258 260 265 267 272 278 287 293 301 298 305 297 289 286 288 290 300 312 317 325
219 219 233 220 211 215 227 239 253 255 254 256 251 249 249 251 248 243 239 246 252 260 265 266 274 277 272 275 281 286 298 301 288 293 300 278 282 286 284 291 300 307 314
223 226 230 218 216 228 237 244 251 256 260 261 262 256 254 248 241 240 244 248 251 254 261 272 282 281 283 281 281 284 279 277 284 284 292 286 281 283 282 287 292 298 306
225 228 228 219 222 233 239 247 251 263 269 267 267 260 255 250 241 242 243 248 252 262 268 273 276 282 283 275 275 281 281 280 281 283 285 284 282 287 289 285 289 294 297
214 219 225 225 227 236 244 258 272 285 289 273 267 265 260 248 244 241 238 247 255 259 272 277 280 279 285 280 276 278 279 281 281 281 287 289 289 286 289 287 286 288 295
210 210 222 234 235 239 250 250 253 260 285 272 254 255 245 243 247 245 245 255 259 265 268 282 284 278 281 274 271 274 274 275 277 277 278 281 282 281 280 281 283 286 290
244 267 248 214 239 253 266 258 255 269 270 268 274 255 245 236 247 248 268 269 273 273 275 287 282 275 277 274 277 277 275 276 278 277 276 275 276 277 278 282 284 287 291
272 272 260 205 217 226 237 237 249 222 232 255 277 273 252 243 243 239 265 280 283 277 277 277 278 280 282 282 280 277 276 276 275 276 278 281 281 281 283 286 288 289 290
227 216 219 240 237 238 253 242 245 250 237 252 259 264 265 260 253 262 275 277 280 280 279 280 282 285 287 287 285 281 278 275 274 274 275 276 279 282 284 285 287 288 291
205 206 215 222 227 223 246 245 244 243 247 258 259 265 264 262 265 266 266 272 277 280 282 284 286 286 289 288 286 282 279 276 274 275 278 281 279 279 282 284 286 286 288
197 207 218 225 224 225 230 241 243 243 253 260 260 267 270 272 273 276 279 281 285 286 287 289 291 292 292 290 288 283 280 277 278 280 280 279 279 282 285 286 284 285 285
239 258 260 255 262 267 261 267 273 278 272 270 274 275 278 281 283 285 287 288 289 292 292 292 293 294 293 292 290 286 283 282 279 277 277 276 276 277 276 276 277 282 279
248 261 257 260 259 262 261 270 270 277 281 275 281 284 283 285 287 287 290 290 289 289 287 288 290 290 290 289 286 284 281 281 279 277 274 274 274 273 271 274 278 280 279
263 268 271 271 273 276 278 277 277 278 281 280 280 283 282 283 283 285 286 286 287 287 289 291 291 290 290 289 288 287 285 283 280 279 277 275 274 272 272 272 272 272 268
277 284 289 290 292 293 290 286 283 281 279 279 278 278 278 280 280 283 283 285 287 289 289 290 290 289 288 287 287 287 285 282 279 276 275 275 275 274 272 272 270 272 272
299 299 301 299 298 297 295 293 291 290 289 287 285 285 284 283 283 284 284 285 286 285 285 286 285 285 284 284 281 280 280 279 275 272 272 273 272 271 269 267 267 267 270
309 309 307 305 303 303 302 300 297 294 289 287 286 286 285 284 286 286 287 287 288 287 288 288 288 289 290 287 283 279 275 271 271 270 270 271 273 273 271 270 270 267 267
309 309 307 308 309 310 308 305 302 300 298 297 296 293 290 288 287 285 283 283 284 285 286 286 285 286 285 285 283 281 279 273 267 267 269 269 269 268 268 273 268 261 259
306 305 308 311 312 313 314 317 317 313 310 309 310 310 308 303 296 297 297 297 294 290 289 290 288 287 286 284 283 281 276 274 271 266 264 267 268 266 266 259 258 255 252
310 313 318 321 319 321 318 319 315 315 309 311 313 311 307 313 311 311 309 307 305 301 297 290 286 283 282 281 279 277 275 270 269 271 268 267 267 266 264 260 259 261 263
317 313 322 324 323 310 304 314 313 311 308 303 306 306 307 316 314 314 316 314 304 298 295 296 293 287 287 282 276 274 274 270 269 266 265 263 264 265 264 257 254 252 252
311 307 306 307 304 301 300 290 302 311 301 306 301 310 314 327 322 315 322 319 311 300 296 292 284 298 282 281 284 279 277 272 269 265 264 262 261 256 259 257 256 251 245
310 302 297 293 290 286 294 307 292 300 297 301 306 309 318 326 329 329 326 323 311 304 301 292 290 290 292 267 279 278 271 277 282 275 270 265 259 266 256 259 252 253 248
308 301 298 296 293 285 283 272 285 291 303 306 305 315 313 317 319 322 325 319 308 302 300 301 289 291 299 276 250 255 269 273 282 282 282 282 274 266 262 249 249 250 253
308 305 302 300 298 288 276 290 282 284 303 302 311 312 319 324 325 329 334 333 323 316 306 315 306 300 295 295 272 269 268 267 275 277 280 279 278 281 265 267 249 254 248
315 314 309 306 291 276 275 286 285 289 295 304 310 312 320 330 336 347 357 353 347 331 317 313 308 306 308 300 291 276 279 284 284 283 283 279 274 275 274 262 252 250 252
Height
3180 3181 3182 3182 3184 3186 3187 3189 3190 3192 3194 3195 3196 3197 3199 3200 3200 3201 3203 3204 3204 3204 3204 3204 3204 3204 3203 3202 3200 3199 3197 3197 3196 3197 3193 3192 3193 3194 3191 3189 3187 3184 3182
3174 3175 3176 3177 3179 3181 3183 3185 3187 3189 3191 3191 3193 3194 3194 3195 3196 3196 3198 3199 3200 3200 3201 3200 3200 3199 3198 3196 3195 3193 3191 3189 3187 3185 3186 3184 3186 3187 3185 3182 3180 3177 3175
3168 3169 3170 3172 3174 3175 3178 3180 3181 3183 3185 3186 3188 3190 3190 3189 3190 3191 3192 3193 3194 3195 3195 3194 3193 3193 3192 3189 3188 3187 3186 3184 3181 3181 3180 3180 3179 3179 3178 3176 3174 3171 3168
3162 3165 3166 3167 3168 3169 3173 3175 3176 3177 3179 3180 3182 3183 3184 3185 3185 3185 3185 3186 3188 3189 3189 3188 3188 3187 3185 3183 3181 3180 3178 3177 3173 3172 3172 3172 3173 3170 3168 3167 3166 3164 3163
3156 3161 3165 3166 3166 3167 3168 3170 3172 3174 3174 3173 3174 3177 3177 3177 3177 3177 3178 3179 3181 3181 3181 3182 3182 3180 3178 3176 3174 3172 3170 3168 3166 3164 3163 3163 3163 3161 3159 3159 3158 3156 3155
3140 3148 3156 3161 3163 3163 3161 3158 3159 3161 3161 3160 3157 3158 3163 3166 3170 3170 3172 3173 3173 3173 3175 3175 3173 3172 3169 3166 3165 3164 3163 3161 3161 3159 3158 3158 3158 3156 3154 3150 3148 3146 3144
3147 3147 3140 3142 3147 3153 3153 3153 3152 3152 3155 3154 3148 3148 3151 3157 3159 3161 3166 3167 3167 3167 3166 3165 3164 3163 3162 3160 3159 3157 3155 3154 3152 3151 3150 3149 3148 3147 3144 3141 3137 3134 3133
3143 3139 3137 3141 3149 3150 3151 3147 3145 3143 3146 3149 3143 3143 3144 3148 3152 3157 3159 3157 3157 3156 3155 3156 3156 3155 3152 3152 3150 3149 3147 3144 3143 3141 3138 3137 3135 3134 3131 3128 3126 3123 3122
3141 3140 3142 3145 3145 3144 3143 3141 3139 3143 3141 3141 3142 3141 3141 3145 3149 3150 3149 3149 3149 3148 3147 3148 3147 3146 3143 3142 3140 3139 3138 3135 3132 3130 3128 3128 3126 3124 3121 3118 3117 3113 3111
3137 3139 3140 3141 3141 3140 3138 3136 3136 3138 3138 3137 3137 3137 3139 3139 3141 3142 3143 3142 3141 3141 3140 3139 3137 3135 3134 3132 3130 3129 3127 3124 3121 3119 3118 3116 3115 3114 3111 3107 3106 3103 3101
3135 3137 3137 3137 3137 3136 3135 3135 3134 3134 3135 3135 3134 3135 3135 3134 3133 3133 3133 3132 3132 3131 3130 3128 3126 3123 3122 3121 3119 3118 3116 3115 3113 3109 3108 3106 3104 3103 3101 3097 3096 3094 3093
3132 3131 3131 3132 3132 3131 3129 3130 3129 3129 3130 3130 3129 3128 3127 3125 3124 3122 3122 3122 3120 3119 3118 3116 3114 3112 3109 3108 3107 3106 3104 3102 3101 3099 3097 3095 3094 3094 3093 3090 3085 3086 3082
3127 3127 3127 3127 3125 3125 3126 3125 3124 3124 3122 3120 3120 3119 3117 3116 3114 3113 3112 3111 3110 3108 3106 3105 3102 3101 3099 3097 3096 3095 3092 3091 3089 3087 3087 3085 3084 3082 3080 3079 3077 3075 3073
3123 3124 3123 3122 3122 3122 3120 3119 3119 3117 3116 3115 3114 3112 3110 3109 3104 3104 3103 3101 3098 3096 3093 3090 3089 3088 3085 3084 3083 3081 3079 3077 3076 3075 3074 3073 3073 3071 3071 3068 3066 3065 3064
3121 3120 3119 3118 3117 3116 3115 3114 3112 3111 3110 3108 3106 3105 3102 3100 3096 3096 3094 3091 3088 3085 3081 3079 3077 3075 3073 3072 3070 3068 3067 3066 3064 3063 3062 3062 3061 3061 3060 3059 3057 3055 3055
3114 3115 3114 3114 3112 3111 3109 3106 3104 3102 3100 3098 3096 3095 3092 3091 3089 3087 3084 3081 3079 3076 3074 3071 3068 3064 3064 3061 3059 3056 3056 3055 3054 3051 3051 3051 3050 3050 3050 3049 3049 3050 3048
3108 3107 3106 3104 3103 3101 3098 3096 3094 3093 3091 3090 3088 3086 3084 3082 3079 3077 3074 3072 3069 3066 3062 3060 3056 3053 3051 3048 3049 3046 3044 3044 3042 3042 3041 3039 3040 3040 3040 3040 3041 3042 3041
3102 3100 3097 3095 3093 3091 3089 3088 3086 3085 3083 3080 3078 3078 3076 3074 3072 3070 3067 3064 3061 3056 3054 3050 3046 3044 3042 3039 3037 3035 3035 3033 3032 3030 3029 3029 3029 3029 3030 3032 3033 3033 3033
3095 3093 3091 3089 3087 3084 3081 3079 3076 3075 3073 3072 3070 3068 3064 3063 3061 3059 3056 3052 3049 3046 3042 3037 3034 3031 3029 3027 3025 3023 3020 3021 3020 3018 3018 3018 3019 3020 3020 3022 3022 3022 3023
3088 3087 3086 3084 3081 3078 3077 3074 3073 3071 3069 3067 3065 3063 3060 3055 3051 3048 3045 3041 3035 3031 3029 3026 3022 3019 3016 3014 3013 3011 3009 3007 3006 3008 3008 3008 3008 3008 3008 3010 3011 3013 3013
3085 3083 3080 3078 3076 3076 3072 3070 3068 3066 3064 3063 3061 3057 3053 3049 3044 3038 3034 3032 3026 3021 3016 3012 3009 3007 3006 3004 3001 2999 2997 2996 2996 2997 2998 2998 2998 2998 2998 2999 3001 3002 3003
3081 3079 3078 3075 3073 3071 3068 3066 3064 3061 3060 3058 3056 3052 3045 3041 3038 3032 3025 3019 3014 3010 3007 3003 3002 2999 2997 2994 2992 2989 2988 2988 2987 2987 2987 2987 2988 2989 2989 2988 2989 2990 2992
3077 3075 3073 3071 3068 3064 3061 3059 3057 3056 3053 3052 3050 3047 3042 3036 3030 3025 3019 3013 3007 3003 3000 2997 2995 2992 2988 2985 2983 2982 2981 2981 2979 2978 2977 2977 2977 2977 2977 2977 2978 2978 2980
3071 3067 3064 3060 3057 3055 3054 3053 3052 3050 3047 3047 3045 3040 3036 3031 3026 3020 3013 3005 3000 2997 2994 2991 2988 2984 2981 2977 2976 2976 2975 2974 2973 2972 2970 2969 2967 2967 2965 2966 2967 2967 2968
3063 3059 3055 3052 3049 3047 3046 3046 3046 3044 3044 3041 3038 3035 3030 3026 3020 3014 3005 2999 2995 2992 2988 2984 2980 2978 2975 2971 2970 2969 2969 2967 2965 2964 2962 2960 2959 2956 2955 2954 2955 2955 2956
3056 3051 3046 3043 3041 3040 3042 3041 3040 3040 3039 3036 3032 3029 3025 3020 3014 3009 3002 2996 2991 2987 2983 2980 2976 2973 2970 2967 2965 2963 2962 2960 2958 2956 2954 2952 2950 2947 2945 2943 2944 2944 2945